Location: Unspecified
(22.6800°N, 112.2000°E)
Time: 11:47:05
(UTC+08:00)

S-56A Canister/Altair - Pass Details

Date: 30 July 2021
Orbit: 632 x 2500 km, 38.9° (Epoch: 21 September)

Event Time Altitude Azimuth Distance (km) Brightness Sun altitude
Rises 14:09:10 0° 231° (SW) 4,914 11.9 68.2°
Reaches altitude 10° 14:12:01 10° 230° (SW) 4,142 11.7 67.5°
Maximum altitude 14:23:54 84° 143° (SE) 2,286 11.2 64.8°
Drops below altitude 10° 14:39:09 10° 57° (ENE) 5,164 11.6 61.3°
Sets 14:43:09 0° 57° (ENE) 6,145 11.9 60.4°
